{"data":{"norad_id":58733,"intl_designator":"2024-005F","name":"STARLINK-31164","alt_names":[],"object_type":"PAYLOAD","status":"ACTIVE","operator":null,"country":"US","launch_date":"2024-01-07","launch_site_code":"AFETR","launch_vehicle":null,"mission":null,"orbit_class":"UNKNOWN","rcs_meters":null,"size_class":null,"mass_kg":null,"dimensions":null,"purposes":["comms"],"wikipedia_slug":null,"has_3d_model":false,"image_url":null,"decayed_at":null,"tle_current":{"epoch":"2026-09-20T04:30:06.095520Z","epoch_age_seconds":176796,"freshness":"STALE","line1":"1 58733U 24005F   26263.18757055 -.00000986  00000+0 -26342-4 0  9999","line2":"2 58733  43.0004 200.9838 0000704 265.7237  94.3534 15.27574398150186","mean_motion":15.27574398,"eccentricity":7.04e-5,"inclination_deg":43.0004,"raan_deg":200.9838,"arg_perigee_deg":265.7237,"mean_anomaly_deg":94.3534,"bstar":-2.6342e-5,"rev_number":15018,"period_min":94.267094413558,"perigee_km":482.58284181214,"apogee_km":483.54889917631,"semimajor_km":6861.2028704942,"source":"CELESTRAK","updated_at":"2026-09-21T09:00:33.952107Z"}}}